Location: Devore Heights
(34.2372°N, 117.4156°W)
Time: 19:39:22
(UTC+00:00)

S-56A Canister/Altair - Pass Details

Date: 19 September 2024
Orbit: 636 x 2487 km, 38.9° (Epoch: 14 October)

Event Time Altitude Azimuth Distance (km) Brightness Sun altitude
Rises 03:39:06 0° 282° (WNW) 3,298 12.2 -22.8°
Reaches altitude 10° 03:41:15 10° 286° (WNW) 2,516 11.3 -23.2°
Maximum altitude 03:47:10 62° 7° (N) 1,248 8.5 -24.3°
Enters shadow 03:50:20 37° 71° (ENE) 1,858 9.0 -25.0°
Drops below altitude 10° 03:56:07 10° 87° (E) 3,741 - -26.1°
Sets 04:00:00 0° 91° (E) 5,034 - -26.8°
